User: anonymous   Login
Location: Bishop's University Astronomical Observatory
(45.3661°N, 71.8475°W)
Time: 06:40:54
(UTC-04:00)
Language:

Meteor 2-5 Rocket - Orbit

View from above orbital plane
View from above orbital plane
View from above satellite
View from above satellite

Ground track
Ground track

The orbit data is extracted from the following two-line orbital elements,

1 11608U 79095B   17206.52200686 +.00000165 +00000-0 +91614-4 0  9998
2 11608 081.2141 173.8133 0055168 055.4974 305.1387 14.06119802935219
Epoch (UTC): 25 July 2017 12:31:41
Eccentricity: 0.0055168
inclination: 81.2141°
perigee height: 832 km
apogee height: 912 km
right ascension of ascending node: 173.8133°
argument of perigee: 55.4974°
revolutions per day: 14.06119802
mean anomaly at epoch: 305.1387°
orbit number at epoch: 93521

The dashed part of the orbit path shows where the satellite is in the earth's shadow,  

DLR